Flag for India Weather past 2 weeks in Balurghat, West Bengal, India

66 °F

Partly cloudy.

Feels Like: 66 °F
Forecast: 63 / 84 °F
Wind: 3 mph from Northwest

Location: Lucknow / Amausi

Current Time: Nov 28, 2015 at 12:43:13 AM

Latest Report: Nov 28, 2015 at 12:00 AM

Visibility: 1 mi

Pressure: 29.86 "Hg

Humidity: 78%

Dew point: 59 °F

Location of BalurghatLocation

Historic Weather in Balurghat — Graph


Balurghat temperature yesterday

Maximum temperature yesterday: 81 °F (at 2:00 PM)
Minimum temperature yesterday: 59 °F (at 4:00 AM)
Average temperature yesterday: 70 °F

Past Weeks' High & Low Weather Summary

High90 °F (Nov 15, 1:30 PM)94% (Nov 27, 4:00 AM)30.09 "Hg (Nov 27, 4:00 AM)
Low54 °F (Nov 26, 7:00 AM)23% (Nov 25, 2:30 PM)29.77 "Hg (Nov 27, 3:00 PM)
Average73 °F57%29.92 "Hg
* Reported Midnight between Nov 12 and Nov 13 — Nov 27 11:00 PM, Balurghat, Weather by CustomWeather, © 2015

Note: Actual official high and low records may vary slightly from our data, if they occured in-between our weather recording intervals... More about our weather records


Balurghat weather history for previous 24 hours

Time TempWeatherWind HumidityBarometerVisibility
11:00 PM
Fri, Nov 27
66 °FPartly cloudy.3 mph78%29.86 "Hg1 mi
10:00 PM68 °FPartly cloudy.3 mph73%29.86 "Hg1 mi
8:00 PM68 °FPartly cloudy.5 mph78%29.83 "Hg1 mi
7:00 PM68 °FPassing clouds.2 mph78%29.80 "Hg1 mi
6:30 PM72 °FPartly cloudy.5 mph69%29.80 "Hg1 mi
6:00 PM75 °FPartly cloudy.2 mph61%29.80 "Hg1 mi
5:30 PM77 °FBroken clouds.3 mph57%29.77 "Hg1 mi
5:00 PM79 °FBroken clouds.3 mph51%29.77 "Hg1 mi
4:30 PM81 °FBroken clouds.3 mph48%29.77 "Hg1 mi
4:00 PM81 °FBroken clouds.3 mph48%29.77 "Hg2 mi
3:30 PM81 °FBroken clouds.5 mph48%29.77 "Hg2 mi
3:00 PM81 °FBroken clouds.6 mph48%29.77 "Hg2 mi
2:30 PM81 °FBroken clouds.6 mph48%29.80 "Hg2 mi
2:00 PM81 °FBroken clouds.6 mph48%29.80 "Hg2 mi
1:30 PM79 °FScattered clouds.5 mph51%29.83 "Hg2 mi
1:00 PM79 °FScattered clouds.6 mph51%29.83 "Hg2 mi
12:00 PM79 °FScattered clouds.5 mph51%29.86 "Hg2 mi
11:30 AM77 °FScattered clouds.5 mph54%29.89 "Hg2 mi
10:30 AM73 °FScattered clouds.6 mph61%29.89 "Hg1 mi
9:00 AM64 °FFog.2 mph73%29.89 "Hg1 mi
8:30 AM64 °FFog.2 mph73%29.89 "Hg1 mi
8:00 AM63 °FFog.2 mph77%29.89 "Hg1 mi
7:00 AM59 °FFog.2 mph88%29.86 "Hg1 mi
6:00 AM59 °FFog.No wind88%29.83 "Hg1 mi
5:30 AM59 °FFog.No wind88%29.83 "Hg1 mi
5:00 AM59 °FFog.No wind94%29.83 "Hg1 mi
4:00 AM59 °FFog.No wind94%29.83 "Hg1 mi
3:00 AM61 °FFog.No wind88%29.83 "Hg1 mi
2:00 AM61 °FFog.No wind88%29.86 "Hg1 mi
1:00 AM63 °FFog.No wind77%29.86 "Hg1 mi
12:00 AM63 °FFog.No wind77%29.86 "Hg1 mi
Weather by CustomWeather, © 2015

See weather overviewHow to use our weather pages